Regional Weather Roundup
Issued by NWS

Home | Current Version | Previous Version | Text Only | Print | Product List | Glossary Off
Versions: 1 2 3 4 5 6 7 8 9 10 11 12 13 14 15 16 17 18 19 20 21 22 23 24 25 26 27 28 29 30 31 32 33 34 35 36 37 38 39 40 41 42 43 44 45 46 47 48 49 50

000
ASUS43 KFSD 171302
RWRSD

WEATHER ROUNDUP FOR SOUTH DAKOTA
NATIONAL WEATHER SERVICE SIOUX FALLS SD
700 AM CST TUE JAN 17 2017

NOTE: "FAIR" INDICATES FEW OR NO CLOUDS BELOW 12,000 FEET WITH NO
SIGNIFICANT WEATHER AND/OR OBSTRUCTIONS TO VISIBILITY.


SDZ001>005-009-010-012>017-171400-
NORTHWEST AND NORTH CENTRAL SOUTH DAKOTA

CITY           SKY/WX    TMP DP  RH WIND       PRES   REMARKS
BUFFALO          N/A     21   9  59 SW10      29.84F WCI  10
FAITH            N/A     11   5  77 SW8       29.95F WCI  -1
MOBRIDGE       CLOUDY     7   1  76 E5        29.95F WCI  -2
$$

SDZ012>016-024>037-041>051-057-063-072>074-171400-
SOUTHWEST AND SOUTH CENTRAL SOUTH DAKOTA

CITY           SKY/WX    TMP DP  RH WIND       PRES   REMARKS
RAPID CTY ARPT CLOUDY    11   7  84 CALM      29.96F
PIERRE         CLOUDY    11   7  84 SW8       30.02S WCI  -1
CUSTER         CLOUDY    25   3  38 SW8       29.93S WCI  16
ELLSWORTH AFB  CLOUDY    17   8  69 SW5       29.94F WCI  10
PHILIP         CLOUDY    11   6  81 W8        30.02F WCI  -1
PINE RIDGE     CLOUDY     0  -3  87 CALM      30.01S
SPEARFISH      FAIR      19   7  58 CALM      29.92F
WINNER         FAIR      18  13  80 W8        30.04S WCI   8
$$

SDZ004>011-016>023-039-040-171400-
NORTHEAST SOUTH DAKOTA

CITY           SKY/WX    TMP DP  RH WIND       PRES   REMARKS
ABERDEEN       CLOUDY    -3  -8  79 S5        30.01F WCI -13
WATERTOWN      CLOUDY     0  -4  83 W5        29.98R WCI -10
BROOKINGS      CLOUDY     6   3  87 N3        29.99R
SISSETON         N/A      4   1  88 CALM      29.99S
$$

SDZ017-020-022-023-036>040-048>070-171400-
SOUTHEAST SOUTH DAKOTA

CITY           SKY/WX    TMP DP  RH WIND       PRES   REMARKS
SIOUX FALLS    CLOUDY    11   9  92 W6        30.02R WCI   1
HURON          CLOUDY     2   0  91 W3        30.04R
CHAMBERLAIN    CLOUDY    14  11  90 W7        30.04S WCI   3
MITCHELL       CLOUDY    10   7  87 W3        30.06S
YANKTON        CLOUDY    16   9  73 CALM      30.06R
$$

ABBREVIATIONS USED IN REMARKS
   TC - TEMPERATURE IN CELSIUS
  WCI - WIND CHILL INDEX
   HX - HEAT INDEX
  VSB - VISIBILITY




USA.gov is the U.S. government's official web portal to all federal, state and local government web resources and services.